Miscellaneous Local Product
Issued by NWS North Platte, NE

Home | Current Version | Previous Version | Text Only | Print | Product List | Glossary On
Versions: 1 2 3 4 5 6 7 8 9 10 11 12 13 14 15 16 17 18 19 20 21 22 23 24 25 26 27 28 29 30 31 32 33 34 35 36 37 38 39 40 41 42 43 44 45 46 47 48 49 50
000
AXUS43 KLBF 020710
MISLBF


WESTERN AND NORTH CENTRAL NEBRASKA HOURLY WEATHER ROUNDUP
NATIONAL WEATHER SERVICE NORTH PLATTE NE
200 AM CDT SAT MAY 02 2015

***STATIONS NOT REPORTING VARIABLES SUCH AS SKY/WEATHER OR
PRESSURE ARE PROVIDED BY THE NEBRASKA DEPARTMENT OF
ROADS...RAWS...AND APRS NETWORKS...AND ARE NOT UNDER
NATIONAL WEATHER SERVICE QUALITY CONTROL***

...OBSERVATIONS IN AND NEAR THE EASTERN PANHANDLE OF NEBRASKA...

CITY           SKY/WX    TMP DP  RH WIND       PRES   REMARKS
PINE RIDGE     CLEAR     57  45  64 S10       29.93F
CHADRON        CLEAR     55  46  71 S9        29.92F
ALLIANCE       CLEAR     47  43  86 SW8       29.96F
SIDNEY         PTCLDY    47  45  93 SW9       30.01S
WHITECLAY        N/A     58  45  60 S10         N/A
CRESCENT LAKE    N/A     54  47  76 CALM        N/A
BIG SPRINGS      N/A     52  46  79 CALM        N/A
$$

...OBSERVATIONS IN NORTH CENTRAL NEBRASKA...

CITY           SKY/WX    TMP DP  RH WIND       PRES   REMARKS
VALENTINE      CLEAR     53  41  63 CALM      29.94F
THEDFORD       PTCLDY    61  50  66 S12       29.97S
AINSWORTH      CLEAR     53  45  72 SE7       29.95F
O`NEILL        CLEAR     54  48  80 SE6       29.96F
ORD            CLEAR     52  45  77 S5        29.95F
BROKEN BOW     MOCLDY    60  48  64 E7        29.95F
BROWNLEE         N/A     60  41  49 E6          N/A
SPRINGVIEW       N/A     46  40  81 CALM        N/A
BREWSTER         N/A     58  52  80 CALM        N/A
ROSE             N/A     57  49  77 E9          N/A
NEWPORT          N/A     54  47  77 S7          N/A
SARGENT          N/A     57  49  74 CALM        N/A
COMSTOCK         N/A     63  51  65 SE7         N/A
EWING            N/A     52  47  83 CALM        N/A
$$

...OBSERVATIONS IN SOUTHWEST NEBRASKA AND FAR NORTHEAST COLORADO...

CITY           SKY/WX    TMP DP  RH WIND       PRES   REMARKS
WRAY           FAIR      55  50  83 SE8       30.02S
IMPERIAL       PTCLDY    58  46  64 S10       29.97F
OGALLALA       CLEAR     50  47  87 CALM      29.98F
NORTH PLATTE   RAIN      59  54  83 NE12      29.98F
MCCOOK         CLOUDY    66  49  54 N9        29.92F
LEXINGTON      CLOUDY    63  52  66 SE8       29.93F
PAXTON           N/A     54  49  83 CALM        N/A
SUTHERLAND       N/A     54  50  86 CALM        N/A
GOTHENBURG       N/A     60  48  64 CALM        N/A
CALLAWAY         N/A     61  53  74 SE6         N/A
$$

...NORTH PLATTE AREA...

CITY           SKY/WX    TMP DP  RH WIND       PRES   REMARKS
AIRPORT        RAIN      59  54  83 NE12      29.98F
DOWNTOWN         N/A     59  54  84 CALM        N/A
$$

...SOME WEATHER OBSERVATIONS FROM AROUND THE REGION...

CITY           SKY/WX    TMP DP  RH WIND       PRES   REMARKS
DENVER         MOCLDY    51  45  79 SW13      30.04F
LARAMIE        PTCLDY    44  34  67 S8        30.09S
CHEYENNE       PTCLDY    46  45  96 SW6       30.05F FOG
SCOTTSBLUFF    CLEAR     51  45  79 E6        29.97F
RAPID CITY     CLEAR     51  34  52 CALM      29.90F
PIERRE         CLEAR     52  38  58 SE8       29.88F
WINNER         FAIR      57  41  55 S10       29.92F
SIOUX FALLS    CLEAR     54  47  77 S5        29.97F
OMAHA          CLEAR     57  44  62 S10       30.00S
GRAND ISLAND   MOCLDY    61  54  77 S9        29.98S
KANSAS CITY    MOCLDY    59  41  51 S10       30.05F
WICHITA        MOCLDY    58  45  62 S9        30.05F
HAYS           CLOUDY    63  46  55 SW16      30.02F
LIBERAL        CLOUDY    63  46  55 S12       30.06F
GOODLAND       MOCLDY    53  47  79 CALM      30.03F
$$



USA.gov is the U.S. government's official web portal to all federal, state and local government web resources and services.